Rbgn^[z[y[W
メイン
   新天体発見情報
     Comet C/2017 M4 (ATLAS)
投稿するにはまず登録を

スレッド表示 | 新しいものから 前のトピック | 次のトピック | 下へ
投稿者 スレッド
佐藤裕久
投稿日時: 2017-6-26 21:46
モデレータ
登録日: 2005-6-12
居住地: 日本
投稿: 1792
オンライン
Comet C/2017 M4 (ATLAS)

6月21日、小惑星地球衝突最終警報システム Asteroid Terrestrial-impact Last Alert System (ATLAS)
チームから、HaleakalaにあるATLAS 0.5-m f/2.0 Schmidt望遠鏡で得たCCD露出から小惑星状天体の発見
が報告された。
小惑星センターのNEOCP webpageに公表後、R. J. Wainscoatは、6月16.6日UT、Haleakalaにある1.8-m 
Pan-STARRS1望遠鏡で発見前のi-バンド画像を得た。光度は18.5-18.9等で、この天体は少し非対称で、
おそらく東に非常に短い尾がある(大きさはFHWMが1".2のシーイングでおよそ 1".7だった)。
他に佐藤英貴氏(東京都文京区, iTelescope Sierra Remote天文台, 0.61-m f/6.5 アストログラフ+輝度
フィルター, Auberry, カリフォルニア州, 遠隔操作:6月22.46日UT, 8枚の60秒露出のスタックで強く
集光した8" のコマが見えたが尾はなかった。5".0の円形範囲で測定したこの彗星のw-バンド光度は
17.8等であった)らCCD位置観測者によって彗星状と観測された。

発見位置は次のとおり、

     2017 UT             R.A. (2000) Decl.       Mag.
     June 21.57716   21 41 25.67   +68 55 30.3   18.3
          21.58733   21 41 24.85   +68 55 34.4   18.0
          21.59818   21 41 23.64   +68 55 38.2   18.1
          21.60796   21 41 22.69   +68 55 43.0   18.1

放物線軌道要素と位置推算表は次のとおり、

Orbital elements:
    C/2017 M4 (ATLAS)
T 2019 Jan. 1.38760 TT                                  MPCW
q   2.9849885            (2000.0)            P               Q
                   Peri.  172.51721     -0.32300048     -0.30379322
                   Node    68.91133     -0.91044775     +0.35830112
e   1.0            Incl.  106.12562     -0.25837103     -0.88279668
From 67 observations 2017 June 16-23.

Ephemeris:
    C/2017 M4 (ATLAS)
Date    TT    R. A. (2000) Decl.     Delta      r     Elong.  Phase   m1
2017 05 24    22 10 43.7 +65 17 04   6.3897  6.1257    70.5     9.0  17.9
...
2017 06 08    21 59 20.0 +67 17 12   6.2018  6.0201    75.0     9.4  17.8
...
2017 06 16    21 49 45.2 +68 17 10   6.0982  5.9637    77.6     9.6  17.7
...
2017 06 22    21 40 44.5 +68 58 14   6.0199  5.9215    79.6     9.7  17.6
2017 06 23    21 39 04.8 +69 04 39   6.0069  5.9144    79.9     9.7  17.6
2017 06 24    21 37 22.4 +69 10 55   5.9938  5.9074    80.3     9.8  17.6
...
2017 06 30    21 26 09.8 +69 45 10   5.9156  5.8652    82.2     9.9  17.5
...
2017 07 08    21 08 44.2 +70 19 52   5.8127  5.8089    84.8    10.0  17.5
...
2017 07 23    20 30 06.2 +70 39 52   5.6274  5.7033    89.1    10.3  17.3

(CBET 4408、MPEC 2017-M45)

スレッド表示 | 新しいものから 前のトピック | 次のトピック | トップ

投稿するにはまず登録を
 
© 1999-2013 Tsutomu Seki.